星链-33645 (STARLINK-33645)

导读 | 豆包AI

STARLINK-33645是由美国于2025年3月31日发射的星链卫星,隶属于SpaceX公司的星链星座项目。该项目旨在构建全球卫星互联网星座,为全球各地提供高速低延迟的互联网接入服务,尤其是弥补偏远地区网络覆盖空白,进一步推进全球网络互联布局,拓展卫星互联网应用边界。

基本信息
目录编号:
63412
目录名称:
STARLINK-33645
国际标识:
2025-065P
轨道中心:
EARTH
卫星名称:
星链-33645
卫星全名:
星链-33645 (STARLINK-33645)
卫星状态:
在轨 (已飞行348 天)
发射日期:
2025-03-31 UTC
国别 :
美国 (US)
星等 :
--
轨道信息
数据来源 国际轨道数据
星历时间: 2026-03-14T17:48:30+0800
12小时前
查看轨道信息
半长轴: 6861.11km
偏心率: 0.0001014
轨道倾角: 42.996°
近地点辐角 84.372°
升交点赤经 83.643°
平近点角 275.724°
近地点: 482.277km
远地点: 483.669km
周期: 94.265分钟
每日圈数: 15.276056
详细信息
固有亮度:
5
最大亮度:
2.5
卫星平台:
Starlink V1.0
覆盖范围:
全球
运营商:
太空探索技术公司
运营商所在国:
美国
制造商(研发单位):
太空探索技术公司
制造商所在国:
美国
使用方式:
暂无
卫星简介
Starlink 计划是 SpaceX 推出的全球卫星互联网项目,通过发射低轨道卫星,为全球尤其是偏远地区提供高速、低延迟的互联网服务。自 2019 年起,Starlink 已部署数千颗卫星,旨在缩小全球数字鸿沟,推动互联网普及。该项目还为军事、航空等行业提供通信支持,带来广泛经济效益。
2D轨道图
3D轨道图
轨道高度分析图
轨道倾角分析图
轨道综合分析图
查看轨道综合分析图